Flag for Israel Weather past 2 weeks in Ra'anana, Israel

Now
84 °F

Passing clouds.


Feels Like: 96 °F
Forecast: 81 / 91 °F
Wind: 7 mph from Southwest

Location: Dov Airport

Current Time: Aug 4, 2015 at 2:33:01 AM

Latest Report: Aug 3, 2015 at 10:50 PM


Visibility: N/A

Pressure: 29.74 "Hg

Humidity: 84%

Dew point: 79 °F

Location of Ra'ananaLocation

Historic Weather in Ra'anana — Graph

°F

Ra'anana temperature yesterday

Maximum temperature yesterday: 90 °F (at 12:50 PM)
Minimum temperature yesterday: 84 °F (at 4:50 AM)
Average temperature yesterday: 86 °F

Past Weeks' High & Low Weather Summary

 TemperatureHumidityPressure
High90 °F (Aug 2, 2:50 PM)94% (Aug 2, 5:50 AM)29.83 "Hg (Aug 2, 5:50 AM)
Low73 °F (Jul 30, 5:50 AM)52% (Jul 23, 2:50 PM)29.65 "Hg (Jul 20, 5:50 AM)
Average83 °F74%29.71 "Hg
* Reported Jul 19 10:50 PM — Aug 3 10:50 PM, Ra'anana, Weather by CustomWeather, © 2015

Note: Actual official high and low records may vary slightly from our data, if they occured in-between our weather recording intervals... More about our weather records

Advertising

Ra'anana weather history for previous 24 hours

 ConditionsComfort  
Time TempWeatherWind HumidityBarometerVisibility
10:50 PM
Mon, Aug 3
84 °FPassing clouds.7 mph84%29.74 "HgN/A
9:50 PM84 °FPassing clouds.7 mph84%29.74 "HgN/A
8:50 PM84 °FPassing clouds.5 mph84%29.74 "HgN/A
7:50 PM84 °FPartly sunny.3 mph84%29.71 "HgN/A
6:50 PM86 °FScattered clouds.6 mph79%29.71 "HgN/A
5:50 PM88 °FScattered clouds.8 mph75%29.71 "HgN/A
4:50 PM88 °FPassing clouds.8 mph75%29.71 "HgN/A
3:50 PM90 °FPassing clouds.8 mph71%29.71 "HgN/A
2:50 PM90 °FSunny.9 mph71%29.71 "Hg10 mi
1:50 PM88 °FSunny.10 mph75%29.71 "Hg10 mi
12:50 PM90 °FSunny.12 mph71%29.74 "Hg10 mi
11:50 AM88 °FSunny.13 mph75%29.74 "Hg10 mi
10:50 AM88 °FSunny.12 mph70%29.74 "Hg10 mi
9:50 AM88 °FPassing clouds.10 mph75%29.74 "HgN/A
8:50 AM86 °FScattered clouds.9 mph79%29.74 "HgN/A
7:50 AM84 °FPartly sunny.9 mph84%29.71 "HgN/A
6:50 AM84 °FPartly cloudy.8 mph89%29.71 "Hg6 mi
5:50 AM84 °FPassing clouds.8 mph84%29.71 "Hg6 mi
4:50 AM84 °FPassing clouds.6 mph89%29.71 "Hg6 mi
Weather by CustomWeather, © 2015

See weather overviewHow to use our weather pages